COSMOS 2251 DEB, 40238

Orbit data source: Space-Track

COSMOS 2251 DEB, 40238 is space debris in LEO originally from a launch on Wed, 16 Jun 1993 UTC launched from the Plesetsk Missile And Space Complex (PKMTR). The debris from Iridium 33, an American commercial communications satellite, has been tracked extensively since its accidental collision with the defunct Russian satellite Cosmos 2251 in 2009. This event, occurring at high speed in low Earth orbit (LEO), generated thousands of pieces of space debris, significantly increasing the risk of further collisions. The Iridium 33 debris cloud has impacted space traffic management and orbital debris mitigation strategies, making it a subject of ongoing study in space situational awareness.

Loading next visibility...
Identifier
40238, 1993-036BVT
Orbit
LEO
Country
Flag of CISCIS
Related business
Manufacturer
Unknown
Mission
Spacecraft
Bus & Motor
Unknown
Mass
Unknown
Launch date (UTC)
1993-06-16 (33 years ago)
Launch vehicle
Unknown
Launch site
Plesetsk Missile And Space Complex (PKMTR)
Object type
Payload
Rocket body
Debris
Shape & HBR
Unknown shape, 0.1 m
Radar Cross Section
Small (<0.1 m²)

Expand to show TLE details & history
Last TLE update: 1 week ago

TLE from 1 week ago
0 COSMOS 2251 DEB
1 40238U 93036BVT 25347.91687140  .00001546  00000-0  15956-2 0  9999
2 40238  73.9889  61.7905 0549416  33.3831 330.0665 13.25118761540525
Epoch: 2025-12-13T22:00Z
TLE epoch observation values (Epoch: 2025-12-13T22:00:17.688Z)
Latitude
0.00001°
Longitude
8.87953°
Altitude
814.586 km
Speed
7.618 km/s
True Right ascension
04h 07m 09s
True Declination
0° 00' 00"
Sunlit
Object was in full shadow at epoch
Visualization orbit readout
Latitude
Unknown
Longitude
Unknown
Altitude
Unknown
Speed
Unknown
Apparent Right ascension
Unknown
Apparent Declination
Unknown
Sunlit
N/A
Visualization observer readout
Local Sidereal Time
14:18:59
Azimuth
Unknown
Elevation
Unknown
Doppler factor
Unknown
Orbital elements
Apogee altitude
1,577.294 km
Perigee altitude
748.652 km
Semi-major axis
7,541.11 km
Eccentricity
0.05494
Inclination
73.9889°
RAAN
61.7905°
Arg. of periapsis
33.3831°
True anomaly
326.72855°
Mean anomaly
330.0665°
Eccentric anomaly
328.41787°
Mean motion
3.31429 °/min
Orbital period
108.62 mins
BSTAR
0.0015956
Loading maneuver chart data...
Computing Atmospheric mass density...
Loading historical data...
Loading historical data...
Loading historical data...
Loading historical data...
Loading historical data...
Loading historical data...
Loading historical data...

Documentation

Showing up to 5 results
|